Regional Weather Roundup
Issued by NWS

Home | Current Version | Previous Version | Text Only | Print | Product List | Glossary Off
Versions: 1 2 3 4 5 6 7 8 9 10 11 12 13 14 15 16 17 18 19 20 21 22 23 24 25 26 27 28 29 30 31 32 33 34 35 36 37 38 39 40 41 42 43 44 45 46 47 48 49 50

589
ASUS43 KLMK 251902
RWRKY
KENTUCKY REGIONAL WEATHER ROUNDUP
NATIONAL WEATHER SERVICE LOUISVILLE KY
300 PM EDT FRI MAY 25 2018

NOTE "FAIR" INDICATES FEW OR NO CLOUDS BELOW 12,000 FEET
WITH NO SIGNIFICANT WEATHER AND/OR OBSTRUCTIONS TO VISIBILITY.

KYZ001>023-026-027-061>063-070>075-252000-
WESTERN AND SOUTH CENTRAL KENTUCKY

CITY           SKY/WX    TMP DP  RH WIND       PRES   REMARKS
PADUCAH        TSTM      72  69  90 SE8       29.93F
HENDERSON      NOT AVBL
OWENSBORO      FAIR      88  65  46 S9        29.92F HX  90
HOPKINSVILLE   FAIR      87  64  46 S3        29.92F
BOWLING GREEN  FAIR      88  59  37 CALM      29.95F
GLASGOW        NOT AVBL
$$

KYZ024-025-028>034-038-045-046-053-252000-
NORTH CENTRAL KENTUCKY

CITY           SKY/WX    TMP DP  RH WIND       PRES   REMARKS
LOUISVILLE/SDF FAIR      88  59  37 VRB3      29.94F
LOUISVILLE/LOU FAIR      88  62  41 MISG      29.95F
FORT KNOX      FAIR      86  58  38 SW6       29.96F
$$

KYZ035>037-039>044-047>052-055>060-089>105-252000-
NORTHEAST KENTUCKY

CITY           SKY/WX    TMP DP  RH WIND       PRES   REMARKS
LEXINGTON      FAIR      85  63  47 SW8       29.98F
COVINGTON      FAIR      83  57  41 VRB5      29.97F
FRANKFORT      FAIR      85  62  46 W5        29.96F
$$

KYZ054-064>069-076>088-106>120-252000-
SOUTHEAST KENTUCKY

CITY           SKY/WX    TMP DP  RH WIND       PRES   REMARKS
JACKSON        FAIR      85  67  54 CALM      30.00F
LONDON         FAIR      84  66  54 W6        29.99F
SOMERSET       NOT AVBL
MIDDLESBORO    FAIR      85  66  53 S6        30.00F
MONTICELLO     FAIR      87  65  47 VRB7G17   29.99F
$$





USA.gov is the U.S. government's official web portal to all federal, state and local government web resources and services.